Miscellaneous Local Product
Issued by NWS Hastings, NE

Home | Current Version | Previous Version | Graphics & Text | Print | Product List | Glossary On
Versions: 1 2 3 4 5 6 7 8 9 10 11 12 13 14 15 16 17 18 19 20 21 22 23 24 25 26 27 28 29 30 31 32 33 34 35 36 37 38 39 40 41 42 43 44 45 46 47 48 49 50
000
AXUS43 KGID 280402
MISGRI

GID CWA HOURLY WEATHER ROUNDUP
NATIONAL WEATHER SERVICE HASTINGS NE
1100 PM CDT WED APR 27 2016

NOTE: "FAIR" INDICATES FEW OR NO CLOUDS BELOW 12,000 FEET WITH NO
SIGNIFICANT WEATHER AND/OR OBSTRUCTIONS TO VISIBILITY.

...SOUTH CENTRAL NEBRASKA...

CITY           SKY/WX    TMP DP  RH WIND       PRES   REMARKS
GRAND ISLAND   CLOUDY    41  38  89 NW24G32   29.71R
HASTINGS       CLOUDY    41  36  82 NW24      29.72R
KEARNEY        CLOUDY    39  34  81 NW20      29.75S WCI  30
ORD            CLOUDY    40  37  89 NW21      29.73R WCI  30
YORK           CLOUDY    45  41  87 NW28G36   29.64R
AURORA         CLOUDY    42  40  93 NW24      29.68R
LEXINGTON      CLOUDY    38  33  82 NW16      29.80R WCI  28
HOLDREGE       MOCLDY    39  33  81 NW20      29.77R WCI  29
HEBRON         CLOUDY    44  39  83 NW18G26   29.69R

...NEBRASKA PANHANDLE...

CITY           SKY/WX    TMP DP  RH WIND       PRES   REMARKS
CHADRON        CLOUDY    33  31  92 N14       29.92R WCI  23
ALLIANCE       CLOUDY    31  29  92 N12       29.88R WCI  22
SCOTTSBLUFF    CLOUDY    36  30  79 N14       29.90R WCI  27
SIDNEY         CLOUDY    37  32  82 N12G22    29.88R WCI  29

...WESTERN AND NORTH CENTRAL NEBRASKA...

CITY           SKY/WX    TMP DP  RH WIND       PRES   REMARKS
VALENTINE      CLOUDY    34  32  92 NW15      29.82R FOG     WCI  24
AINSWORTH      CLOUDY    36  35  99 NW13      29.79R FOG     WCI  27
ONEILL         CLOUDY    42  41  95 N15       29.74R FOG
BROKEN BOW     CLOUDY    37  34  89 NW16      29.78R WCI  28
IMPERIAL       CLEAR     38  33  82 NW9       29.87R WCI  31
NORTH PLATTE   CLOUDY    34  30  85 NW10      29.83R WCI  26
MCCOOK         CLEAR     39  33  79 NW13      29.84R WCI  31

...EASTERN NEBRASKA...

CITY           SKY/WX    TMP DP  RH WIND       PRES   REMARKS
NORFOLK        CLOUDY    46  44  93 NE13      29.65R
SO SIOUX CITY  RAIN      47  43  86 NE17G24   29.64S
TEKAMAH        LGT RAIN  47  46  97 N16       29.59R
COLUMBUS       CLOUDY    48  41  76 N14G20    29.63R
ALBION         LGT RAIN  45  44  95 NW15G21   29.67R
OMAHA EPPLEY   CLOUDY    49  43  80 S7        29.60R
OFFUTT AFB     CLOUDY    47  43  87 S5        29.60R
MILLARD        CLOUDY    47  43  84 SW6       29.59R
LINCOLN        CLOUDY    47  43  86 W5        29.60R
NEBRASKA CITY  CLOUDY    46  42  88 SW13      29.60R
BEATRICE       DRIZZLE   45  43  93 W18       29.62R
FALLS CITY     CLOUDY    49  40  71 SW20G28   29.63S

...NORTHERN KANSAS...

CITY           SKY/WX    TMP DP  RH WIND       PRES   REMARKS
GOODLAND       CLEAR     40  31  70 N13       29.85R WCI  32
HILL CITY      CLEAR     44  37  76 NW9       29.84R
NORTON         CLEAR     41  32  70 NW10      29.82
PHILLIPSBURG   CLEAR     43  36  75 NW12G17   29.82R
SMITH CENTER   CLEAR     39  34  81 NW21      29.79S WCI  29
BELOIT         CLEAR     41  36  81 W15       29.77R
HAYS           CLEAR     43  30  61 W9        29.84R
RUSSELL        CLEAR     45  37  73 W10       29.81R
CONCORDIA      CLEAR     42  35  76 W17       29.74R
SALINA         CLEAR     47  40  76 NW12      29.79R
TOPEKA         CLEAR     52  41  66 W13G18    29.72R



USA.gov is the U.S. government's official web portal to all federal, state and local government web resources and services.